Wind_Speed
20 20 21 21 21 21 21 22 22 23 23 24 25 25 25 25 24 24 24 24 24 24 24 24 24 24 23 23 24 24 24 23 23 23 22 22 22 23
20 20 21 22 22 23 23 23 23 24 24 25 25 26 26 26 25 24 24 25 24 24 24 24 24 24 24 24 23 24 23 23 23 22 22 22 22 23
20 20 21 22 23 23 24 25 25 25 25 26 25 25 25 25 25 25 24 25 25 24 24 24 24 24 24 24 24 24 24 24 24 23 23 23 23 23
21 21 21 22 23 24 24 25 25 25 25 25 25 25 25 25 25 25 26 25 25 25 24 24 24 25 24 25 24 24 24 24 23 24 23 23 23 23
21 22 22 23 23 24 24 25 25 25 25 26 26 26 26 26 26 26 26 26 25 25 25 25 25 25 25 25 25 25 24 25 24 24 24 23 23 24
22 22 22 23 24 24 25 25 25 25 25 26 26 26 26 27 27 27 27 27 27 27 27 26 26 26 25 25 25 25 26 25 25 25 25 24 24 24
23 24 24 24 24 25 26 26 26 26 26 26 27 27 27 28 28 28 28 28 28 28 28 28 27 26 25 26 26 25 25 25 25 25 25 25 25 25
25 25 25 25 26 26 27 27 27 27 27 27 27 28 28 28 28 29 29 29 29 29 29 29 28 27 27 27 27 27 26 26 26 26 26 26 26 27
26 26 26 26 26 27 27 28 28 29 29 28 27 28 29 28 28 29 29 30 30 30 30 30 30 29 28 28 27 28 27 27 28 27 27 28 28 27
27 28 28 29 29 29 29 29 29 29 29 29 28 29 29 29 29 29 30 31 31 31 31 31 31 31 30 29 29 28 28 28 28 28 28 29 29 28
29 29 30 30 30 31 31 30 30 30 30 30 29 30 30 31 31 30 30 31 32 32 32 32 32 32 31 31 30 30 30 30 29 29 29 29 29 29
29 30 30 31 31 31 31 31 30 30 31 31 31 31 30 31 32 32 32 32 32 33 33 33 33 33 33 32 32 31 31 30 30 30 29 29 29 30
30 31 31 31 31 31 31 31 31 31 31 31 31 31 32 32 32 32 32 32 33 33 34 34 33 34 33 32 33 32 31 31 31 30 29 29 30 30
31 31 31 31 32 32 32 33 33 32 31 31 31 32 32 32 32 33 33 33 33 34 34 34 34 34 34 33 32 32 32 31 30 30 30 30 30 30
32 32 31 32 32 32 32 33 33 33 32 32 32 32 31 32 32 33 34 33 33 34 34 34 34 34 34 33 32 32 32 32 32 31 31 31 30 30
32 32 32 33 33 32 32 33 33 33 32 32 32 32 32 32 32 33 34 33 34 34 34 34 34 34 34 33 33 32 32 33 33 33 32 32 31 31
31 32 32 33 32 32 33 32 32 32 32 32 32 32 32 32 32 32 32 32 33 33 34 34 34 34 33 33 32 32 33 33 34 34 33 32 32 32
32 32 32 32 32 32 32 32 32 31 31 31 32 32 32 32 32 31 30 30 32 33 33 32 33 33 33 33 33 33 33 33 33 33 33 32 32 32
31 32 31 31 31 31 31 31 31 30 30 30 31 31 31 32 32 31 30 30 31 32 32 32 32 33 33 33 33 33 33 33 33 33 33 33 32 31
31 31 31 31 31 30 30 30 30 30 30 30 30 29 30 30 30 30 31 31 31 32 32 32 33 33 33 33 33 33 33 33 33 33 33 33 32 32
32 32 32 31 31 30 30 30 30 30 29 29 29 29 29 29 29 29 30 31 31 31 31 32 32 33 33 33 33 33 33 33 33 32 32 32 32 32
32 32 31 31 30 30 30 30 29 28 28 27 27 28 28 28 28 28 28 29 29 30 30 31 31 31 32 32 32 32 31 32 32 32 32 32 32 31
31 31 31 30 29 29 28 28 28 28 27 26 27 27 27 27 27 27 27 27 28 28 29 29 30 30 30 30 31 31 31 30 30 31 31 32 31 31
Wind_Direction
270 268 265 265 266 267 267 266 267 267 266 265 265 266 265 265 264 264 262 261 260 261 261 260 260 261 261 262 263 264 265 265 264 263 261 256 254 254
273 269 267 265 265 266 268 269 269 268 268 266 266 265 264 264 263 263 262 261 261 261 260 259 259 260 260 262 264 264 265 264 262 259 257 257 254 253
274 271 270 268 268 268 269 270 270 270 270 268 268 266 265 264 263 262 263 262 261 260 259 258 259 260 262 262 264 264 263 262 262 259 255 254 253 253
274 273 271 270 271 271 271 271 272 272 271 270 268 267 265 264 264 263 262 260 260 259 258 260 261 261 262 262 263 261 261 261 262 259 255 253 252 252
275 275 273 272 271 272 273 273 273 273 273 271 267 266 266 264 263 263 262 261 260 259 260 261 261 262 262 262 262 261 260 259 259 257 255 254 253 254
276 277 276 275 274 274 275 274 275 274 274 272 269 266 266 265 264 263 262 261 261 260 261 260 261 262 262 261 262 262 260 259 259 259 257 255 255 255
276 276 277 277 277 278 276 276 276 276 275 272 272 269 267 265 263 263 263 261 260 260 261 260 260 261 262 262 263 263 261 260 260 260 258 257 257 256
276 276 276 278 279 279 277 277 277 276 275 273 272 271 269 267 264 263 262 261 260 260 260 260 260 261 262 262 263 263 261 260 261 260 259 257 259 258
277 277 277 279 279 278 278 278 278 278 278 274 273 272 269 267 265 264 263 262 260 260 259 258 258 260 261 261 262 262 261 260 260 260 260 259 259 259
277 277 278 279 279 279 279 279 278 278 278 275 272 270 268 266 266 264 263 263 261 260 260 259 258 258 258 260 262 262 261 260 260 260 261 260 259 260
278 277 279 280 279 278 279 278 278 277 277 275 272 271 269 267 266 265 263 262 261 260 260 259 258 257 257 259 260 260 260 259 259 260 260 260 260 261
280 280 280 281 280 278 278 278 278 277 276 276 274 271 269 267 266 266 265 263 261 260 259 259 259 257 256 257 258 258 258 259 260 260 260 260 261 262
282 281 281 281 279 278 277 277 278 277 276 276 274 272 270 268 267 266 265 264 262 260 260 259 258 258 257 255 257 259 260 260 260 259 259 260 262 262
281 281 281 281 279 278 277 277 277 277 276 274 274 273 271 268 266 265 265 264 264 261 260 259 258 258 257 256 256 258 259 259 259 259 260 260 261 262
281 281 281 281 280 280 279 279 278 277 276 274 272 272 271 269 266 265 265 263 264 262 259 257 257 256 255 256 257 259 259 259 259 259 259 260 260 261
282 282 282 282 281 280 280 280 279 277 275 274 271 269 269 269 269 266 264 261 261 261 260 256 256 255 254 255 257 259 260 260 259 259 259 259 259 259
282 282 283 283 283 282 280 279 278 277 275 274 272 270 269 269 267 265 264 262 260 260 259 256 255 255 254 255 257 259 259 259 260 259 258 258 259 260
283 283 283 282 282 283 282 281 280 278 275 274 272 271 270 268 267 264 263 261 260 260 259 258 257 257 256 257 258 260 260 259 259 259 259 258 258 259
283 283 283 282 283 283 282 282 281 278 276 274 272 270 269 269 267 265 263 262 261 260 259 257 258 258 258 258 258 260 260 260 258 258 259 259 258 259
285 284 284 283 283 283 282 281 280 278 277 275 273 271 270 269 267 265 264 264 263 261 258 259 260 260 259 258 258 260 261 260 258 258 258 258 258 258
284 285 285 285 283 282 282 281 280 279 278 276 273 271 269 268 268 267 265 265 264 262 260 260 262 262 261 259 259 258 260 260 259 258 257 256 256 256
284 285 286 285 283 281 281 281 280 279 278 276 274 272 271 269 268 267 266 265 263 262 261 262 263 263 262 261 260 259 259 259 259 258 257 256 256 255
284 285 285 284 283 281 281 281 281 280 279 278 276 273 271 270 269 267 266 265 263 263 263 263 263 262 262 262 261 260 260 260 258 258 257 257 257 256
Height
5778 5778 5778 5778 5779 5779 5779 5779 5780 5780 5780 5780 5780 5780 5780 5780 5781 5782 5782 5783 5784 5785 5786 5787 5788 5789 5790 5791 5791 5791 5791 5792 5791 5792 5792 5793 5795 5797
5773 5772 5773 5773 5773 5773 5773 5773 5773 5773 5773 5773 5773 5773 5773 5773 5774 5775 5776 5776 5777 5778 5779 5780 5781 5782 5784 5784 5784 5785 5785 5785 5785 5785 5786 5787 5789 5791
5767 5767 5767 5767 5767 5767 5767 5767 5767 5766 5766 5766 5766 5766 5766 5766 5767 5768 5769 5770 5770 5771 5772 5774 5775 5776 5777 5778 5779 5779 5779 5779 5779 5779 5780 5781 5783 5785
5761 5761 5761 5761 5761 5760 5760 5760 5760 5759 5759 5759 5759 5759 5759 5759 5760 5761 5762 5763 5764 5764 5766 5767 5769 5770 5770 5771 5772 5773 5773 5772 5773 5773 5774 5775 5777 5778
5756 5755 5755 5755 5754 5754 5754 5753 5753 5752 5752 5751 5751 5751 5752 5752 5753 5754 5754 5755 5757 5758 5759 5760 5761 5762 5763 5764 5765 5766 5766 5767 5767 5767 5768 5769 5770 5772
5749 5749 5749 5748 5748 5748 5747 5746 5746 5745 5744 5744 5743 5744 5744 5745 5746 5747 5747 5748 5749 5751 5752 5753 5754 5755 5756 5757 5758 5758 5759 5760 5761 5761 5762 5762 5764 5765
5743 5743 5742 5742 5741 5741 5740 5739 5738 5738 5737 5736 5736 5736 5736 5737 5738 5739 5740 5740 5741 5743 5744 5745 5746 5747 5748 5749 5750 5751 5751 5752 5753 5754 5755 5756 5756 5757
5737 5736 5735 5735 5734 5733 5732 5732 5731 5730 5729 5728 5728 5728 5728 5729 5729 5730 5731 5732 5733 5735 5736 5737 5738 5739 5740 5741 5742 5743 5744 5745 5746 5747 5747 5748 5749 5750
5729 5729 5728 5727 5726 5725 5725 5724 5723 5722 5721 5720 5719 5719 5719 5720 5721 5722 5723 5723 5725 5726 5727 5728 5730 5731 5732 5733 5734 5735 5736 5737 5738 5738 5739 5740 5741 5741
5722 5721 5720 5719 5718 5717 5716 5715 5714 5713 5712 5711 5710 5711 5711 5711 5712 5713 5713 5714 5715 5716 5718 5719 5720 5722 5723 5724 5725 5726 5727 5728 5729 5730 5730 5731 5732 5733
5713 5712 5712 5711 5710 5709 5708 5707 5706 5705 5703 5702 5701 5701 5701 5702 5702 5703 5704 5705 5706 5707 5708 5710 5711 5713 5714 5715 5716 5717 5718 5719 5720 5721 5722 5722 5723 5724
5705 5704 5703 5702 5700 5699 5699 5698 5696 5695 5694 5693 5692 5692 5692 5692 5692 5693 5694 5695 5696 5697 5698 5700 5701 5703 5705 5706 5706 5708 5709 5710 5711 5712 5712 5713 5714 5715
5696 5695 5694 5692 5691 5690 5689 5688 5687 5686 5685 5684 5683 5682 5682 5682 5682 5683 5683 5685 5686 5687 5688 5690 5691 5692 5694 5696 5697 5698 5699 5700 5701 5702 5703 5704 5705 5706
5687 5686 5684 5683 5681 5680 5679 5678 5677 5676 5675 5674 5673 5672 5671 5671 5671 5672 5672 5673 5675 5676 5677 5679 5681 5682 5684 5686 5687 5689 5689 5691 5692 5693 5694 5694 5695 5696
5677 5676 5675 5673 5672 5670 5669 5668 5667 5666 5665 5664 5663 5662 5661 5661 5661 5661 5662 5663 5664 5665 5666 5668 5670 5672 5674 5676 5678 5679 5680 5681 5682 5683 5684 5685 5686 5687
5668 5666 5665 5663 5662 5660 5659 5658 5656 5655 5655 5653 5652 5652 5651 5651 5651 5651 5652 5652 5654 5655 5656 5657 5659 5661 5663 5665 5667 5669 5670 5671 5672 5673 5674 5675 5676 5677
5658 5656 5654 5653 5652 5650 5649 5647 5646 5645 5644 5643 5642 5641 5641 5640 5640 5640 5641 5642 5643 5644 5646 5647 5649 5650 5652 5655 5657 5658 5659 5660 5662 5663 5664 5665 5666 5667
5648 5646 5644 5643 5641 5640 5638 5637 5635 5634 5633 5633 5632 5631 5631 5630 5630 5630 5630 5631 5633 5634 5635 5637 5639 5640 5642 5644 5646 5647 5648 5650 5651 5652 5653 5655 5656 5657
5638 5636 5634 5633 5631 5629 5628 5627 5625 5624 5623 5622 5622 5621 5620 5620 5620 5620 5621 5622 5623 5624 5625 5626 5628 5630 5632 5634 5635 5636 5637 5638 5640 5641 5643 5644 5646 5647
5628 5626 5624 5623 5621 5620 5618 5617 5615 5614 5613 5612 5611 5611 5610 5610 5610 5611 5611 5612 5613 5614 5615 5616 5618 5618 5620 5622 5624 5625 5626 5627 5628 5630 5632 5633 5635 5636
5617 5616 5614 5612 5611 5609 5608 5607 5606 5604 5603 5602 5601 5601 5601 5601 5601 5601 5601 5602 5603 5604 5605 5606 5607 5608 5609 5611 5613 5614 5615 5616 5617 5619 5621 5622 5623 5625
5607 5605 5603 5602 5600 5599 5598 5597 5595 5594 5593 5592 5591 5591 5591 5591 5591 5592 5592 5593 5593 5594 5595 5596 5597 5598 5599 5600 5602 5603 5605 5606 5607 5608 5609 5611 5612 5614
5596 5595 5593 5592 5590 5589 5588 5587 5586 5585 5584 5583 5583 5582 5582 5582 5582 5582 5583 5583 5584 5585 5586 5587 5588 5588 5589 5590 5592 5593 5595 5596 5596 5598 5599 5600 5602 5603